Wind_Speed
33 34 35 36 36 37 38 39 39 40 40 40 40 39 39 39 39 38 38 38 38 38 39 40 42 43 44 44 44 44 45 46 46 46 45 44 43 42 41 40 41 43 44
35 36 37 38 38 39 40 41 42 42 42 41 40 40 39 38 37 36 37 37 37 37 38 40 41 43 45 46 47 47 47 47 47 48 48 47 45 44 43 42 42 43 44
36 37 38 39 40 41 42 43 44 44 43 42 42 40 39 37 36 36 36 36 37 37 38 39 40 42 44 46 47 48 49 49 49 49 50 50 48 45 44 43 42 42 43
38 39 40 41 42 43 44 45 46 45 45 44 43 41 39 37 36 36 35 35 36 38 39 40 41 43 44 46 47 49 50 51 51 51 52 53 52 49 48 45 45 44 43
40 41 41 42 43 44 45 46 47 46 46 45 44 42 40 38 37 36 36 36 37 38 40 41 43 44 46 47 49 51 52 53 53 53 53 54 54 53 51 48 47 46 46
41 42 42 43 44 45 46 47 47 47 47 46 44 42 39 38 37 37 37 37 37 38 39 41 43 44 46 48 50 52 54 55 55 55 56 55 56 56 54 51 49 48 48
42 42 43 45 46 47 48 48 48 47 47 46 44 42 40 39 39 38 38 37 37 38 39 41 43 45 47 48 50 52 55 57 58 59 58 58 58 58 56 54 50 48 48
43 43 45 46 47 48 49 49 48 48 47 45 43 42 40 40 39 39 39 39 39 39 40 41 43 45 47 49 50 51 54 57 59 61 61 61 61 61 59 56 53 50 50
44 45 46 47 48 49 49 49 48 47 46 45 43 42 40 40 40 39 39 39 38 38 39 39 40 43 46 49 50 51 53 56 59 62 64 64 64 63 62 60 57 53 51
45 47 48 49 50 49 49 49 48 47 45 44 43 42 40 39 38 38 38 36 35 35 36 36 38 40 43 46 49 50 52 54 58 61 65 66 67 66 65 62 59 55 51
47 49 50 51 51 50 49 49 47 45 44 43 42 41 40 38 37 37 35 34 33 32 32 33 34 35 37 41 45 48 50 54 58 60 64 67 68 68 67 64 61 57 52
50 52 52 52 51 50 49 48 46 44 43 42 41 40 39 37 36 35 33 32 31 30 29 30 30 31 33 35 38 42 47 52 56 60 62 66 68 68 68 66 63 60 55
53 54 54 54 52 50 48 46 44 43 41 40 40 38 36 36 35 33 32 30 28 27 27 26 26 26 26 27 30 34 40 46 52 57 60 63 67 68 68 67 65 62 58
55 55 56 54 52 49 46 44 42 41 40 39 38 36 35 35 34 32 29 26 26 25 24 22 21 20 19 19 23 27 33 39 46 52 57 61 64 68 68 67 66 62 59
56 57 56 54 50 47 45 43 41 40 39 38 36 35 34 34 32 30 27 25 24 23 21 19 18 16 14 13 15 20 25 32 40 46 52 58 62 65 67 67 66 64 61
58 57 55 51 48 45 43 42 41 40 38 37 35 34 33 32 30 28 26 23 22 20 19 17 16 13 9 7 9 14 19 26 33 40 47 52 56 61 65 65 64 63 61
57 55 52 49 46 43 41 40 39 38 37 36 34 33 32 30 28 26 24 22 19 17 16 15 13 10 6 3 5 10 16 22 29 35 41 46 50 56 61 62 62 61 59
56 53 50 47 43 41 40 39 37 35 34 34 32 31 30 28 26 24 22 20 18 15 14 12 10 7 4 1 5 9 13 19 25 31 36 40 45 50 55 57 59 59 57
53 50 48 44 41 39 38 37 35 34 33 32 30 30 29 27 25 24 22 19 17 15 12 10 8 5 2 1 5 8 12 17 23 28 31 35 39 45 50 53 56 56 55
51 48 45 41 39 38 36 34 33 32 32 31 29 29 28 27 25 23 21 17 15 13 10 8 6 3 0 3 5 7 12 16 21 25 28 31 35 40 46 50 53 54 54
48 46 42 39 37 35 34 33 32 31 30 30 28 28 27 26 25 23 20 17 14 12 9 7 5 3 2 3 5 7 10 14 18 22 27 30 33 37 42 47 49 52 53
45 43 39 36 35 33 32 31 30 29 28 28 27 27 26 26 24 21 18 16 14 11 10 8 6 5 4 5 6 8 11 13 16 21 24 27 31 36 41 44 47 50 51
43 40 37 34 33 32 30 29 28 27 27 26 25 25 25 24 22 20 18 16 14 11 10 9 8 8 7 8 8 10 12 13 15 18 23 26 29 34 40 43 46 48 49
40 37 35 32 30 29 28 27 26 25 25 24 24 24 24 24 22 20 18 16 13 12 10 10 10 11 10 10 10 11 12 14 15 16 20 24 27 31 36 41 44 47 48
37 34 32 30 28 27 26 25 24 24 23 23 23 23 23 24 22 20 18 16 13 12 11 10 11 12 13 13 13 13 13 14 16 17 19 22 24 29 33 37 41 44 46
34 32 30 27 26 25 24 23 23 22 21 21 21 21 22 22 21 20 17 15 12 10 9 10 11 13 15 16 16 16 15 15 16 17 19 21 23 26 30 34 38 41 44
Wind_Direction
337 336 336 336 335 334 333 331 328 326 322 318 314 309 303 298 293 287 281 276 270 265 261 257 253 250 247 245 241 239 236 234 232 231 231 230 228 227 226 226 225 225 223
334 334 334 334 333 332 331 330 328 326 324 321 316 312 307 301 295 289 283 278 272 267 263 259 254 251 248 246 243 240 237 235 232 230 230 230 228 227 226 225 223 223 223
332 332 332 331 331 330 329 329 328 327 325 322 318 313 308 302 297 291 285 280 275 270 265 260 256 252 249 246 244 241 238 235 232 229 229 229 228 226 225 225 223 222 222
331 331 330 330 329 328 328 327 327 326 324 322 318 314 309 303 298 292 287 282 277 272 267 263 258 253 249 246 244 241 239 236 233 229 228 228 227 225 225 225 224 222 221
329 329 329 328 327 327 326 326 325 324 323 321 318 315 310 305 299 295 290 285 280 275 270 266 261 256 252 248 245 242 239 236 234 230 228 227 226 225 225 225 224 223 221
328 328 328 327 326 325 324 324 323 322 322 320 318 315 311 306 302 298 294 289 284 279 273 268 264 259 254 249 245 242 239 236 234 231 228 226 226 225 224 225 225 224 224
327 328 328 327 325 324 323 322 322 321 321 320 319 316 312 308 304 301 297 292 287 282 277 272 267 262 257 252 247 242 239 236 233 230 227 225 225 224 225 225 223 223 222
326 327 327 326 324 323 322 321 321 320 320 320 319 316 313 309 306 302 299 295 291 286 280 274 270 264 259 254 249 244 240 236 232 229 227 225 223 223 223 223 222 222 220
326 326 326 326 324 323 321 320 320 320 321 320 319 317 314 311 308 305 302 299 295 289 284 278 273 266 260 255 250 246 240 235 232 228 225 224 222 222 222 222 221 220 219
326 326 325 325 324 322 321 320 320 321 321 321 320 318 316 313 311 308 306 303 299 294 288 283 277 270 263 256 250 245 239 234 231 227 224 222 221 221 221 221 220 218 218
326 326 325 325 323 322 321 321 321 321 322 322 322 320 318 317 314 311 309 306 303 298 293 288 283 275 267 259 252 244 237 232 228 226 223 220 219 219 219 218 219 218 217
325 325 325 324 323 321 321 322 322 322 323 324 324 323 321 320 318 316 312 310 308 303 298 295 289 282 272 262 252 243 235 230 226 223 221 219 217 217 217 217 217 217 215
324 324 325 324 324 323 323 323 323 324 324 325 325 324 323 322 321 319 316 314 312 310 306 304 298 290 279 265 251 240 232 227 223 220 218 217 216 215 215 215 215 214 214
324 323 324 325 325 324 324 325 325 325 326 326 326 326 324 323 323 322 320 317 317 316 315 312 309 300 288 268 249 236 230 224 219 216 214 214 214 214 213 213 212 212 212
323 323 325 326 326 325 325 326 326 326 326 328 328 327 326 325 324 324 322 320 319 321 322 321 318 309 297 274 248 233 225 218 213 211 211 211 212 212 211 211 211 211 211
323 324 325 327 327 327 327 326 327 327 327 329 330 329 328 328 328 327 324 322 321 323 327 328 330 325 309 275 241 224 213 208 206 207 207 208 209 210 209 208 209 210 209
323 324 325 326 327 327 326 326 328 328 328 330 330 331 330 329 329 329 326 324 322 323 327 331 336 340 329 283 231 207 199 198 201 202 203 205 206 207 207 207 207 207 207
323 324 325 326 326 327 326 327 328 328 329 330 330 331 331 330 329 329 327 324 322 321 323 330 338 346 349 249 195 190 189 191 192 194 198 202 204 205 205 205 205 206 205
321 322 323 324 325 325 326 327 328 329 330 331 331 331 331 330 330 330 328 324 322 320 317 323 335 348 14 147 178 183 184 185 187 189 194 198 201 203 203 202 202 203 203
319 320 321 322 323 324 325 327 328 329 330 331 331 330 329 329 329 328 326 323 320 319 317 313 317 320 250 148 156 170 179 183 185 187 189 193 196 199 200 200 201 202 202
316 317 319 320 322 322 324 325 327 328 329 331 331 330 329 329 329 327 324 319 315 312 308 299 286 275 215 176 168 170 171 180 185 188 188 188 191 195 196 197 199 199 200
314 314 316 318 319 320 322 323 325 326 328 330 330 330 331 331 330 329 325 319 311 300 290 280 264 243 210 188 182 181 176 173 180 185 185 187 189 191 193 195 196 196 199
311 311 312 314 315 317 319 320 322 324 326 329 329 330 331 332 331 329 327 319 309 299 280 264 247 233 215 197 188 181 179 180 180 182 183 184 187 190 192 194 196 197 199
307 307 309 311 312 314 316 317 319 322 324 327 328 329 330 331 331 328 326 322 309 297 280 256 239 227 215 203 193 185 180 177 177 177 179 183 188 191 194 195 196 197 199
302 303 305 307 308 310 313 314 316 319 321 324 326 328 331 334 334 331 328 326 318 298 277 253 235 225 215 205 197 191 185 181 179 179 181 185 189 193 195 197 197 198 200
297 298 300 302 304 306 308 310 313 316 319 322 325 328 333 337 340 338 335 333 329 315 282 250 231 221 213 207 201 196 192 188 184 183 184 187 189 191 195 198 200 201 202
Height
5788 5783 5777 5772 5767 5761 5756 5751 5745 5740 5734 5728 5722 5717 5712 5707 5704 5701 5699 5698 5697 5698 5698 5700 5702 5704 5707 5710 5714 5718 5723 5728 5734 5739 5743 5747 5752 5757 5762 5766 5771 5777 5782
5782 5777 5771 5765 5760 5754 5748 5743 5737 5731 5724 5718 5712 5706 5701 5696 5692 5689 5687 5685 5685 5685 5686 5687 5689 5691 5694 5697 5701 5705 5710 5715 5722 5727 5732 5737 5742 5747 5752 5757 5762 5768 5773
5776 5770 5764 5758 5752 5746 5740 5734 5727 5721 5714 5708 5701 5696 5690 5685 5681 5678 5675 5674 5673 5672 5673 5674 5675 5677 5680 5683 5687 5691 5697 5702 5708 5715 5720 5725 5731 5737 5743 5748 5753 5758 5764
5769 5763 5757 5751 5744 5738 5732 5725 5718 5711 5704 5697 5691 5685 5679 5675 5670 5667 5664 5662 5660 5659 5659 5660 5661 5663 5666 5669 5672 5677 5682 5688 5694 5701 5708 5713 5720 5727 5733 5739 5744 5749 5755
5762 5756 5750 5743 5736 5730 5723 5716 5708 5701 5694 5687 5680 5674 5668 5663 5659 5655 5652 5650 5648 5646 5645 5645 5646 5647 5650 5653 5657 5661 5666 5673 5679 5687 5694 5701 5708 5715 5722 5729 5735 5740 5746
5755 5748 5742 5735 5728 5721 5714 5706 5699 5691 5684 5676 5670 5663 5657 5652 5647 5643 5639 5637 5634 5632 5631 5630 5630 5631 5633 5636 5640 5644 5650 5656 5664 5671 5680 5688 5695 5703 5710 5717 5724 5731 5738
5747 5741 5734 5727 5719 5712 5704 5697 5689 5681 5673 5666 5658 5652 5646 5640 5635 5630 5626 5623 5620 5618 5616 5614 5613 5614 5615 5618 5622 5627 5632 5639 5647 5655 5664 5673 5681 5690 5698 5706 5713 5720 5728
5739 5732 5725 5718 5710 5703 5695 5687 5679 5671 5663 5655 5647 5641 5634 5628 5623 5618 5613 5609 5606 5602 5600 5598 5597 5596 5597 5599 5603 5608 5614 5621 5629 5638 5649 5658 5665 5674 5684 5693 5701 5709 5717
5731 5724 5717 5709 5701 5693 5685 5676 5668 5660 5652 5644 5636 5629 5623 5617 5611 5605 5600 5595 5591 5587 5583 5581 5579 5579 5578 5579 5584 5589 5595 5602 5609 5618 5629 5639 5649 5659 5670 5679 5689 5697 5705
5723 5716 5708 5700 5692 5683 5675 5666 5658 5650 5641 5633 5626 5618 5612 5606 5599 5593 5587 5582 5578 5573 5569 5565 5563 5561 5560 5560 5564 5569 5576 5583 5590 5599 5609 5621 5633 5644 5655 5667 5677 5686 5695
5715 5707 5699 5691 5682 5673 5665 5656 5648 5640 5632 5624 5616 5608 5601 5595 5589 5582 5576 5570 5565 5560 5556 5551 5548 5545 5543 5542 5544 5550 5556 5562 5570 5580 5591 5603 5615 5628 5641 5654 5665 5676 5685
5706 5698 5689 5681 5672 5664 5655 5646 5638 5630 5622 5614 5606 5599 5591 5585 5579 5572 5565 5560 5554 5549 5544 5539 5534 5530 5527 5526 5527 5531 5536 5543 5553 5563 5575 5588 5601 5615 5629 5641 5653 5664 5675
5696 5688 5679 5670 5662 5653 5645 5637 5628 5621 5613 5606 5598 5590 5583 5576 5570 5563 5557 5550 5544 5539 5534 5528 5523 5518 5514 5512 5513 5516 5520 5527 5537 5549 5562 5575 5588 5601 5614 5627 5640 5652 5663
5687 5678 5670 5661 5652 5643 5635 5627 5620 5612 5605 5598 5590 5583 5576 5569 5562 5555 5549 5543 5537 5531 5526 5520 5514 5509 5505 5503 5503 5505 5510 5516 5525 5536 5548 5560 5572 5586 5600 5614 5628 5641 5653
5677 5668 5660 5651 5642 5634 5626 5618 5612 5605 5597 5591 5583 5576 5569 5562 5556 5549 5542 5537 5531 5526 5520 5514 5509 5504 5500 5497 5497 5499 5502 5507 5516 5526 5537 5549 5561 5575 5589 5603 5617 5631 5643
5667 5659 5650 5642 5633 5626 5618 5611 5603 5597 5590 5583 5577 5570 5563 5556 5550 5544 5538 5532 5527 5522 5516 5511 5506 5502 5498 5496 5495 5496 5499 5504 5511 5520 5530 5541 5553 5566 5580 5594 5607 5621 5634
5658 5649 5641 5633 5625 5618 5611 5604 5597 5590 5583 5577 5570 5564 5557 5551 5545 5539 5534 5529 5524 5519 5514 5510 5505 5501 5498 5496 5496 5496 5499 5503 5509 5517 5526 5537 5547 5559 5572 5585 5599 5613 5626
5648 5640 5632 5625 5617 5610 5604 5597 5591 5584 5578 5571 5565 5559 5553 5547 5541 5535 5530 5525 5521 5517 5513 5509 5505 5502 5500 5498 5498 5499 5501 5504 5510 5516 5525 5533 5543 5554 5566 5579 5593 5606 5619
5638 5631 5623 5616 5610 5603 5597 5590 5584 5578 5572 5566 5560 5554 5549 5543 5537 5532 5527 5522 5518 5515 5511 5509 5506 5504 5502 5501 5501 5502 5504 5506 5511 5517 5524 5532 5541 5551 5562 5575 5587 5600 5612
5629 5622 5615 5609 5602 5596 5590 5584 5578 5573 5567 5561 5555 5550 5544 5539 5533 5528 5524 5520 5516 5513 5510 5508 5507 5505 5504 5504 5504 5504 5506 5509 5513 5518 5524 5531 5539 5549 5559 5571 5583 5595 5608
5619 5613 5607 5601 5595 5590 5584 5578 5573 5567 5562 5556 5551 5545 5540 5535 5530 5525 5521 5517 5514 5511 5509 5508 5507 5506 5505 5506 5506 5507 5509 5511 5515 5519 5525 5531 5538 5547 5557 5568 5578 5590 5602
5609 5604 5598 5593 5588 5583 5578 5573 5567 5562 5557 5552 5547 5541 5536 5531 5526 5522 5518 5514 5511 5509 5507 5507 5506 5506 5506 5507 5508 5509 5511 5513 5517 5521 5525 5531 5538 5546 5555 5565 5575 5586 5597
5599 5594 5590 5585 5581 5576 5572 5567 5562 5557 5553 5548 5543 5538 5533 5528 5523 5518 5514 5511 5508 5506 5505 5504 5504 5505 5506 5507 5508 5510 5512 5515 5518 5522 5526 5531 5538 5545 5554 5563 5572 5583 5593
5589 5585 5581 5577 5573 5569 5565 5561 5557 5553 5548 5544 5539 5534 5530 5525 5520 5515 5511 5507 5504 5502 5501 5501 5502 5503 5504 5506 5508 5510 5513 5516 5519 5522 5526 5532 5538 5545 5552 5561 5569 5579 5589
5579 5576 5572 5569 5566 5563 5559 5555 5552 5548 5544 5540 5536 5531 5526 5522 5517 5512 5508 5504 5500 5498 5497 5497 5498 5500 5502 5504 5507 5510 5512 5516 5519 5523 5527 5532 5537 5543 5550 5558 5566 5575 5585
5569 5566 5564 5561 5559 5556 5553 5550 5547 5543 5539 5536 5532 5528 5524 5519 5514 5509 5505 5501 5498 5495 5493 5493 5495 5497 5499 5502 5505 5508 5512 5515 5519 5523 5527 5531 5536 5542 5548 5556 5564 5572 5581